sat.trackr.live / text

‹ back to catalog

STARLINK-3059

NORAD 49181 · 2021-082BD

PAYLOAD ACTIVE UNKNOWN

§ Identity

Operator
Country
US
Launch date
2021-09-14
Launch site
AFWTR
Launch vehicle
Mass (kg)
RCS (m²)

Purposes: comms

External: N2YO · Heavens-Above · Gunter

§ Orbital elements

Epoch: 2026-09-20T03:21:23.719104Z

Period
96.11 min
Inclination
69.9998°
Eccentricity
0.0002878
Mean motion
14.98328392 rev/d
Perigee alt
570.1 km
Apogee alt
574.1 km
Semi-major
6,950.2 km
B*
3.6824e-5
RAAN
164.1800°
Arg perigee
268.3150°
Mean anomaly
91.7679°
Rev number
27,629

§ Raw data

STARLINK-30591 49181U 21082BD  26263.13985786  .00000346  00000+0  36824-4 0  99912 49181  69.9998 164.1800 0002878 268.3150  91.7679 14.98328392276299

JSON: /api/v1/satellites/49181 · /tle

For live sub-satellite position, see the globe view (requires WebGL).

§ Visibility from observer

Set your observer location to see the next 7 days of passes ≥ 10°. The values pass through the URL so the page stays shareable.

No JS? Fill the form by hand. The geolocation button needs JavaScript.